| time (UTC) | temp F | wind direction | speed MPH | gust MPH | rain 1hr in | rain 24hr in | rain mn in | humidity % | barometer mb |
| 20260503173007 | 71 | 325 | 2.0 | 6.0 | 0.00 | 0.00 | 0.00 | 53 | 1015.2 |
| 20260503172504 | 70 | 312 | 3.0 | 6.0 | 0.00 | 0.00 | 0.00 | 52 | 1015.2 |
| 20260503172006 | 70 | 309 | 1.0 | 4.0 | 0.00 | 0.00 | 0.00 | 53 | 1015.2 |
| 20260503171513 | 70 | 21 | 1.0 | 5.0 | 0.00 | 0.00 | 0.00 | 52 | 1015.3 |
| 20260503171003 | 70 | 302 | 2.0 | 6.0 | 0.00 | 0.00 | 0.00 | 52 | 1015.2 |
| 20260503170509 | 70 | 344 | 3.0 | 6.0 | 0.00 | 0.00 | 0.00 | 52 | 1015.3 |
| 20260503151004 | 57 | 201 | 0.0 | 2.0 | 0.00 | 0.00 | 0.00 | 89 | 1015.8 |
| 20260503150504 | 56 | 249 | 0.0 | 2.0 | 0.00 | 0.00 | 0.00 | 90 | 1015.8 |
| 20260503131003 | 45 | 27 | 0.0 | 2.0 | 0.00 | 0.01 | 0.00 | 95 | 1015.6 |
| 20260503130508 | 45 | 27 | 0.0 | 2.0 | 0.00 | 0.01 | 0.00 | 94 | 1015.6 |
| 20260503110510 | 46 | 311 | 1.0 | 2.0 | 0.00 | 0.01 | 0.00 | 93 | 1015.6 |
| 20260503090504 | 48 | 126 | 0.0 | 2.0 | 0.00 | 0.01 | 0.00 | 92 | 1015.4 |
| 20260503081511 | 49 | 227 | 0.0 | 2.0 | 0.00 | 0.01 | 0.00 | 91 | 1015.3 |
| 20260503081006 | 49 | 227 | 0.0 | 2.0 | 0.00 | 0.01 | 0.00 | 90 | 1015.3 |
| 20260503080506 | 49 | 227 | 0.0 | 3.0 | 0.00 | 0.01 | 0.00 | 90 | 1015.4 |
| 20260503072512 | 51 | 167 | 0.0 | 0.0 | 0.00 | 0.01 | 0.00 | 88 | 1015.3 |
| 20260503072006 | 51 | 167 | 0.0 | 2.0 | 0.00 | 0.01 | 0.00 | 88 | 1015.2 |
| 20260503071527 | 51 | 167 | 0.0 | 2.0 | 0.00 | 0.01 | 0.00 | 87 | 1015.2 |
| 20260503071003 | 52 | 167 | 0.0 | 3.0 | 0.00 | 0.01 | 0.00 | 87 | 1015.2 |
| 20260503070505 | 52 | 167 | 0.0 | 3.0 | 0.00 | 0.01 | 0.00 | 87 | 1015.2 |
| 20260503055007 | 56 | 198 | 0.0 | 2.0 | 0.00 | 0.01 | 0.01 | 80 | 1014.6 |
| 20260503054519 | 57 | 198 | 0.0 | 2.0 | 0.00 | 0.01 | 0.01 | 80 | 1014.6 |
| 20260503054009 | 57 | 200 | 0.0 | 3.0 | 0.00 | 0.01 | 0.01 | 80 | 1014.6 |
| 20260503053506 | 57 | 180 | 2.0 | 2.0 | 0.00 | 0.01 | 0.01 | 80 | 1014.7 |
| 20260503053020 | 57 | 184 | 1.0 | 3.0 | 0.00 | 0.01 | 0.01 | 81 | 1014.6 |
| 20260503052506 | 57 | 194 | 0.0 | 3.0 | 0.00 | 0.01 | 0.01 | 81 | 1014.7 |
| 20260503052008 | 57 | 199 | 1.0 | 2.0 | 0.00 | 0.01 | 0.01 | 81 | 1014.7 |
| 20260503051518 | 57 | 184 | 1.0 | 3.0 | 0.00 | 0.01 | 0.01 | 81 | 1014.7 |
| 20260503051006 | 57 | 209 | 1.0 | 3.0 | 0.00 | 0.01 | 0.01 | 81 | 1014.7 |
| 20260503050507 | 57 | 194 | 2.0 | 3.0 | 0.00 | 0.01 | 0.01 | 80 | 1014.7 |
| 20260503050028 | 57 | 195 | 2.0 | 3.0 | 0.00 | 0.01 | 0.01 | 80 | 1014.7 |
| 20260503045508 | 57 | 184 | 2.0 | 3.0 | 0.00 | 0.01 | 0.01 | 81 | 1014.7 |
| 20260503045010 | 57 | 193 | 1.0 | 2.0 | 0.00 | 0.01 | 0.01 | 81 | 1014.7 |
| 20260503044516 | 58 | 199 | 1.0 | 2.0 | 0.00 | 0.01 | 0.01 | 79 | 1014.7 |
| 20260503044007 | 58 | 183 | 1.0 | 1.0 | 0.00 | 0.01 | 0.01 | 78 | 1014.6 |
| 20260503043509 | 59 | 175 | 1.0 | 2.0 | 0.00 | 0.01 | 0.01 | 77 | 1014.7 |
| 20260503043019 | 60 | 154 | 0.0 | 2.0 | 0.00 | 0.01 | 0.01 | 76 | 1014.6 |
| 20260503042506 | 60 | 154 | 1.0 | 2.0 | 0.00 | 0.01 | 0.01 | 74 | 1014.6 |
| 20260503042010 | 61 | 127 | 0.0 | 2.0 | 0.00 | 0.01 | 0.01 | 73 | 1014.5 |
| 20260503041522 | 61 | 166 | 0.0 | 2.0 | 0.00 | 0.01 | 0.01 | 72 | 1014.6 |
| 20260503041008 | 61 | 182 | 1.0 | 3.0 | 0.00 | 0.01 | 0.01 | 71 | 1014.5 |
| 20260503040508 | 62 | 160 | 1.0 | 3.0 | 0.00 | 0.01 | 0.01 | 71 | 1014.4 |
| 20260503040024 | 62 | 160 | 2.0 | 3.0 | 0.00 | 0.01 | 0.01 | 70 | 1014.4 |
| 20260503035508 | 63 | 173 | 2.0 | 3.0 | 0.00 | 0.01 | 0.01 | 70 | 1014.3 |
| 20260503035007 | 63 | 187 | 0.0 | 2.0 | 0.00 | 0.01 | 0.01 | 69 | 1014.3 |
| 20260503034533 | 63 | 223 | 1.0 | 3.0 | 0.00 | 0.01 | 0.01 | 69 | 1014.3 |
| 20260503034008 | 64 | 180 | 1.0 | 4.0 | 0.00 | 0.01 | 0.01 | 68 | 1014.2 |
| 20260503033507 | 64 | 183 | 2.0 | 4.0 | 0.00 | 0.01 | 0.01 | 68 | 1014.1 |
| 20260503033027 | 65 | 184 | 1.0 | 2.0 | 0.00 | 0.01 | 0.01 | 68 | 1014.0 |
| 20260503032510 | 66 | 195 | 1.0 | 2.0 | 0.00 | 0.01 | 0.01 | 68 | 1014.0 |
| 20260503032007 | 66 | 172 | 0.0 | 2.0 | 0.00 | 0.01 | 0.01 | 64 | 1014.0 |
| 20260503031518 | 67 | 205 | 1.0 | 4.0 | 0.00 | 0.01 | 0.01 | 64 | 1014.0 |
| 20260503031011 | 67 | 201 | 2.0 | 4.0 | 0.00 | 0.01 | 0.01 | 63 | 1014.2 |
| 20260503030507 | 68 | 179 | 1.0 | 4.0 | 0.00 | 0.01 | 0.01 | 62 | 1014.1 |
| 20260503030028 | 69 | 186 | 2.0 | 4.0 | 0.00 | 0.01 | 0.01 | 61 | 1014.0 |
| 20260503025508 | 69 | 187 | 1.0 | 3.0 | 0.00 | 0.01 | 0.01 | 59 | 1013.9 |
| 20260503025012 | 70 | 188 | 2.0 | 3.0 | 0.00 | 0.01 | 0.01 | 60 | 1013.9 |
| 20260503024526 | 70 | 195 | 1.0 | 3.0 | 0.00 | 0.01 | 0.01 | 58 | 1013.9 |
| 20260503024007 | 71 | 192 | 2.0 | 3.0 | 0.00 | 0.01 | 0.01 | 58 | 1013.9 |
| 20260503023507 | 71 | 187 | 1.0 | 3.0 | 0.00 | 0.01 | 0.01 | 57 | 1013.9 |
| 20260503023014 | 72 | 195 | 1.0 | 3.0 | 0.00 | 0.01 | 0.01 | 56 | 1013.9 |
| 20260503022509 | 72 | 161 | 1.0 | 5.0 | 0.00 | 0.01 | 0.01 | 57 | 1014.0 |
| 20260503022007 | 72 | 223 | 1.0 | 5.0 | 0.00 | 0.01 | 0.01 | 55 | 1014.0 |
| 20260503021522 | 72 | 175 | 2.0 | 6.0 | 0.00 | 0.01 | 0.01 | 55 | 1013.9 |
| 20260503021004 | 73 | 213 | 2.0 | 6.0 | 0.00 | 0.01 | 0.01 | 55 | 1014.0 |
| 20260503020507 | 73 | 173 | 3.0 | 6.0 | 0.00 | 0.01 | 0.01 | 55 | 1014.1 |
| 20260503020022 | 74 | 196 | 3.0 | 7.0 | 0.00 | 0.01 | 0.01 | 53 | 1014.1 |
| 20260503015507 | 75 | 181 | 4.0 | 7.0 | 0.00 | 0.01 | 0.01 | 50 | 1014.1 |
| 20260503015003 | 75 | 168 | 1.0 | 5.0 | 0.00 | 0.01 | 0.01 | 45 | 1014.1 |
| 20260503014508 | 75 | 228 | 2.0 | 5.0 | 0.00 | 0.01 | 0.01 | 44 | 1014.2 |
| 20260503014007 | 75 | 238 | 3.0 | 5.0 | 0.00 | 0.01 | 0.01 | 43 | 1014.1 |
| 20260503013504 | 75 | 220 | 2.0 | 4.0 | 0.00 | 0.01 | 0.01 | 46 | 1014.1 |
| 20260503013022 | 76 | 217 | 2.0 | 4.0 | 0.00 | 0.01 | 0.01 | 44 | 1014.2 |
| 20260503012508 | 76 | 236 | 2.0 | 5.0 | 0.00 | 0.01 | 0.01 | 44 | 1014.3 |
| 20260503012009 | 76 | 207 | 3.0 | 5.0 | 0.00 | 0.01 | 0.01 | 44 | 1014.2 |
| 20260503011512 | 76 | 221 | 2.0 | 4.0 | 0.00 | 0.01 | 0.01 | 45 | 1014.3 |
| 20260503011008 | 76 | 240 | 1.0 | 4.0 | 0.00 | 0.01 | 0.01 | 45 | 1014.3 |
| 20260503010510 | 77 | 215 | 1.0 | 5.0 | 0.00 | 0.01 | 0.01 | 45 | 1014.3 |
| 20260503010008 | 76 | 248 | 2.0 | 5.0 | 0.00 | 0.01 | 0.01 | 46 | 1014.3 |
| 20260503005507 | 76 | 222 | 4.0 | 7.0 | 0.00 | 0.01 | 0.01 | 45 | 1014.3 |
| 20260503005007 | 76 | 330 | 2.0 | 7.0 | 0.00 | 0.01 | 0.01 | 43 | 1014.4 |
| 20260503004525 | 76 | 248 | 2.0 | 8.0 | 0.00 | 0.01 | 0.01 | 43 | 1014.4 |
| 20260503004007 | 76 | 278 | 3.0 | 8.0 | 0.00 | 0.01 | 0.01 | 42 | 1014.4 |
| 20260503003504 | 77 | 241 | 2.0 | 7.0 | 0.00 | 0.01 | 0.01 | 43 | 1014.4 |
| 20260503003011 | 77 | 280 | 3.0 | 9.0 | 0.00 | 0.01 | 0.01 | 41 | 1014.5 |
| 20260503002504 | 77 | 280 | 3.0 | 9.0 | 0.00 | 0.01 | 0.01 | 42 | 1014.5 |
| 20260503002007 | 77 | 298 | 4.0 | 9.0 | 0.00 | 0.01 | 0.01 | 41 | 1014.5 |
| 20260503001516 | 77 | 303 | 3.0 | 8.0 | 0.00 | 0.01 | 0.01 | 45 | 1014.5 |
| 20260503001008 | 77 | 273 | 3.0 | 8.0 | 0.00 | 0.01 | 0.01 | 43 | 1014.6 |
| 20260503000507 | 76 | 280 | 2.0 | 6.0 | 0.00 | 0.01 | 0.01 | 43 | 1014.6 |
| 20260503000022 | 76 | 313 | 3.0 | 9.0 | 0.00 | 0.01 | 0.01 | 42 | 1014.6 |
| 20260502235508 | 76 | 264 | 4.0 | 9.0 | 0.00 | 0.01 | 0.01 | 43 | 1014.6 |
| 20260502235009 | 76 | 269 | 4.0 | 9.0 | 0.00 | 0.01 | 0.01 | 43 | 1014.7 |
| 20260502234518 | 76 | 214 | 3.0 | 9.0 | 0.00 | 0.01 | 0.01 | 40 | 1014.7 |
| 20260502234007 | 76 | 293 | 4.0 | 10.0 | 0.00 | 0.01 | 0.01 | 42 | 1014.7 |
| 20260502233507 | 76 | 280 | 6.0 | 10.0 | 0.00 | 0.01 | 0.01 | 40 | 1014.9 |
| 20260502233019 | 76 | 250 | 5.0 | 10.0 | 0.00 | 0.01 | 0.01 | 44 | 1014.9 |
| 20260502232505 | 76 | 238 | 6.0 | 10.0 | 0.00 | 0.01 | 0.01 | 43 | 1015.0 |
| 20260502232007 | 76 | 285 | 3.0 | 7.0 | 0.00 | 0.01 | 0.01 | 45 | 1015.0 |
| 20260502231517 | 75 | 296 | 3.0 | 7.0 | 0.00 | 0.01 | 0.01 | 47 | 1015.0 |
| 20260502231007 | 75 | 211 | 4.0 | 9.0 | 0.00 | 0.01 | 0.01 | 48 | 1015.1 |
| 20260502230509 | 75 | 287 | 3.0 | 9.0 | 0.00 | 0.01 | 0.01 | 45 | 1015.1 |
| 20260502230020 | 75 | 246 | 3.0 | 8.0 | 0.00 | 0.01 | 0.01 | 45 | 1015.2 |
| 20260502225507 | 75 | 284 | 3.0 | 8.0 | 0.00 | 0.01 | 0.01 | 45 | 1015.3 |
| 20260502225007 | 75 | 289 | 6.0 | 10.0 | 0.00 | 0.01 | 0.01 | 47 | 1015.3 |
| 20260502224525 | 74 | 269 | 4.0 | 10.0 | 0.00 | 0.01 | 0.01 | 49 | 1015.4 |
| 20260502224008 | 74 | 280 | 6.0 | 11.0 | 0.00 | 0.01 | 0.01 | 49 | 1015.6 |
| 20260502223506 | 74 | 238 | 4.0 | 11.0 | 0.00 | 0.01 | 0.01 | 51 | 1015.6 |
| 20260502223027 | 74 | 278 | 4.0 | 10.0 | 0.00 | 0.01 | 0.01 | 49 | 1015.6 |
| 20260502222508 | 74 | 254 | 4.0 | 9.0 | 0.00 | 0.01 | 0.01 | 51 | 1015.6 |
| 20260502222008 | 74 | 237 | 4.0 | 10.0 | 0.00 | 0.01 | 0.01 | 51 | 1015.8 |
| 20260502221513 | 74 | 248 | 5.0 | 10.0 | 0.00 | 0.01 | 0.01 | 51 | 1015.9 |
| 20260502221006 | 74 | 207 | 4.0 | 10.0 | 0.00 | 0.01 | 0.01 | 55 | 1015.9 |
| 20260502220509 | 74 | 277 | 5.0 | 10.0 | 0.00 | 0.01 | 0.01 | 52 | 1015.9 |
| 20260502220031 | 75 | 232 | 5.0 | 9.0 | 0.00 | 0.01 | 0.01 | 52 | 1016.0 |
| 20260502215507 | 75 | 290 | 4.0 | 11.0 | 0.00 | 0.01 | 0.01 | 53 | 1016.1 |
| 20260502215009 | 74 | 319 | 5.0 | 11.0 | 0.00 | 0.01 | 0.01 | 53 | 1016.2 |
| 20260502214513 | 74 | 303 | 5.0 | 10.0 | 0.00 | 0.01 | 0.01 | 54 | 1016.2 |
| 20260502214008 | 74 | 281 | 4.0 | 10.0 | 0.00 | 0.01 | 0.01 | 56 | 1016.2 |
| 20260502213513 | 73 | 300 | 5.0 | 10.0 | 0.00 | 0.01 | 0.01 | 53 | 1016.3 |
| 20260502213025 | 73 | 278 | 5.0 | 11.0 | 0.00 | 0.01 | 0.01 | 54 | 1016.4 |
| 20260502212508 | 73 | 231 | 7.0 | 11.0 | 0.00 | 0.01 | 0.01 | 55 | 1016.5 |
| 20260502212008 | 73 | 308 | 5.0 | 9.0 | 0.00 | 0.01 | 0.01 | 55 | 1016.4 |
| 20260502211535 | 73 | 302 | 3.0 | 9.0 | 0.00 | 0.01 | 0.01 | 60 | 1016.6 |
| 20260502211007 | 72 | 310 | 4.0 | 11.0 | 0.00 | 0.01 | 0.01 | 56 | 1016.6 |
| 20260502210507 | 72 | 305 | 5.0 | 10.0 | 0.00 | 0.01 | 0.01 | 56 | 1016.6 |
| 20260502210016 | 72 | 306 | 4.0 | 10.0 | 0.00 | 0.01 | 0.01 | 60 | 1016.7 |
| 20260502205510 | 72 | 291 | 6.0 | 10.0 | 0.00 | 0.01 | 0.01 | 57 | 1016.7 |
| 20260502205008 | 71 | 262 | 6.0 | 11.0 | 0.00 | 0.01 | 0.01 | 57 | 1016.8 |
| 20260502204521 | 71 | 226 | 5.0 | 11.0 | 0.00 | 0.01 | 0.01 | 61 | 1016.8 |
| 20260502204009 | 71 | 222 | 6.0 | 11.0 | 0.00 | 0.01 | 0.01 | 59 | 1016.8 |
| 20260502203506 | 71 | 230 | 5.0 | 13.0 | 0.00 | 0.01 | 0.01 | 59 | 1016.8 |
| 20260502203022 | 71 | 250 | 7.0 | 13.0 | 0.00 | 0.01 | 0.01 | 58 | 1016.9 |
| 20260502202507 | 72 | 214 | 5.0 | 12.0 | 0.00 | 0.01 | 0.01 | 59 | 1016.9 |
| 20260502202011 | 72 | 284 | 6.0 | 12.0 | 0.00 | 0.01 | 0.01 | 58 | 1017.0 |
| 20260502201519 | 73 | 279 | 4.0 | 11.0 | 0.00 | 0.01 | 0.01 | 58 | 1017.0 |
| 20260502201007 | 73 | 292 | 5.0 | 11.0 | 0.00 | 0.01 | 0.01 | 59 | 1017.1 |
| 20260502200510 | 73 | 296 | 5.0 | 11.0 | 0.00 | 0.01 | 0.01 | 58 | 1017.1 |
| 20260502200014 | 73 | 277 | 5.0 | 11.0 | 0.00 | 0.01 | 0.01 | 58 | 1017.1 |
| 20260502195507 | 73 | 275 | 6.0 | 9.0 | 0.00 | 0.01 | 0.01 | 57 | 1017.1 |
| 20260502195006 | 73 | 249 | 2.0 | 9.0 | 0.00 | 0.01 | 0.01 | 52 | 1017.1 |
| 20260502194520 | 73 | 313 | 4.0 | 9.0 | 0.00 | 0.01 | 0.01 | 53 | 1017.2 |
| 20260502194006 | 73 | 331 | 1.0 | 11.0 | 0.00 | 0.01 | 0.01 | 53 | 1017.2 |
| 20260502193507 | 72 | 269 | 5.0 | 11.0 | 0.00 | 0.01 | 0.01 | 54 | 1017.2 |
| 20260502193024 | 72 | 271 | 2.0 | 10.0 | 0.00 | 0.01 | 0.01 | 53 | 1017.2 |
| 20260502192510 | 72 | 285 | 2.0 | 10.0 | 0.00 | 0.01 | 0.01 | 53 | 1017.3 |
| 20260502192009 | 72 | 262 | 3.0 | 8.0 | 0.00 | 0.01 | 0.01 | 56 | 1017.3 |
| 20260502191525 | 72 | 276 | 2.0 | 8.0 | 0.00 | 0.01 | 0.01 | 52 | 1017.3 |
| 20260502191010 | 72 | 291 | 4.0 | 8.0 | 0.00 | 0.01 | 0.01 | 53 | 1017.4 |
| 20260502190508 | 72 | 9 | 3.0 | 8.0 | 0.00 | 0.01 | 0.01 | 54 | 1017.3 |
| 20260502190026 | 72 | 352 | 2.0 | 10.0 | 0.00 | 0.01 | 0.01 | 54 | 1017.4 |
| 20260502185509 | 71 | 330 | 4.0 | 10.0 | 0.00 | 0.01 | 0.01 | 53 | 1017.3 |
| 20260502185012 | 71 | 5 | 6.0 | 9.0 | 0.00 | 0.01 | 0.01 | 55 | 1017.4 |
| 20260502184521 | 71 | 352 | 3.0 | 9.0 | 0.00 | 0.01 | 0.01 | 53 | 1017.5 |
| 20260502184007 | 70 | 5 | 4.0 | 8.0 | 0.00 | 0.01 | 0.01 | 54 | 1017.5 |
| 20260502183510 | 70 | 303 | 2.0 | 8.0 | 0.00 | 0.01 | 0.01 | 58 | 1017.6 |
| 20260502183020 | 70 | 338 | 5.0 | 8.0 | 0.00 | 0.01 | 0.01 | 60 | 1017.7 |
| 20260502182509 | 69 | 360 | 3.0 | 10.0 | 0.00 | 0.01 | 0.01 | 59 | 1017.8 |
| 20260502182015 | 69 | 12 | 4.0 | 10.0 | 0.00 | 0.01 | 0.01 | 57 | 1017.7 |
| 20260502181529 | 69 | 27 | 7.0 | 10.0 | 0.00 | 0.01 | 0.01 | 55 | 1017.8 |
| 20260502181007 | 70 | 34 | 8.0 | 10.0 | 0.00 | 0.01 | 0.01 | 55 | 1017.8 |
| 20260502180510 | 69 | 342 | 7.0 | 11.0 | 0.00 | 0.01 | 0.01 | 55 | 1018.0 |